Time,TemperatureF,DewpointF,PressureIn,WindDirection,WindDirectionDegrees,WindSpeedMPH,WindSpeedGustMPH,Humidity,HourlyPrecipIn,Conditions,Clouds,dailyrainin,SoftwareType,DateUTC
2013-03-17 00:00:00,57.4,44.5,29.80,WSW,247,0.0,0.0,62,0.00,,,0.00,WeatherCatV1.00B22,2013-03-17 04:00:00,
2013-03-17 00:05:00,57.3,44.4,29.80,WSW,247,0.0,0.0,62,0.00,,,0.00,WeatherCatV1.00B22,2013-03-17 04:05:00,
2013-03-17 00:10:00,57.2,44.7,29.80,WSW,247,0.0,1.0,63,0.00,,,0.00,WeatherCatV1.00B22,2013-03-17 04:10:00,
2013-03-17 00:11:00,57.1,45.0,29.80,WSW,247,0.0,0.0,64,0.00,,,0.00,WeatherCatV1.00B22,2013-03-17 04:11:00,
2013-03-17 00:16:00,57.0,44.9,29.80,WSW,247,0.0,0.0,64,0.00,,,0.00,WeatherCatV1.00B22,2013-03-17 04:16:00,
2013-03-17 00:21:00,56.8,45.2,29.80,WSW,247,0.0,1.0,65,0.00,,,0.00,WeatherCatV1.00B22,2013-03-17 04:21:00,
2013-03-17 00:26:00,56.7,45.1,29.80,WSW,247,1.0,2.0,65,0.00,,,0.00,WeatherCatV1.00B22,2013-03-17 04:26:00,
2013-03-17 00:31:00,56.6,45.0,29.80,WSW,247,1.0,1.0,65,0.00,,,0.00,WeatherCatV1.00B22,2013-03-17 04:31:00,
2013-03-17 00:36:00,56.6,45.4,29.80,WSW,247,0.0,1.0,66,0.00,,,0.00,WeatherCatV1.00B22,2013-03-17 04:36:00,
2013-03-17 00:41:00,56.6,45.0,29.80,WSW,247,0.0,1.0,65,0.00,,,0.00,WeatherCatV1.00B22,2013-03-17 04:41:00,
2013-03-17 00:46:00,56.6,44.6,29.80,WSW,247,0.0,1.0,64,0.00,,,0.00,WeatherCatV1.00B22,2013-03-17 04:46:00,
2013-03-17 00:51:00,56.6,44.6,29.80,WSW,247,0.0,0.0,64,0.00,,,0.00,WeatherCatV1.00B22,2013-03-17 04:51:00,
2013-03-17 00:56:00,56.6,44.2,29.80,WSW,247,0.0,0.0,63,0.00,,,0.00,WeatherCatV1.00B22,2013-03-17 04:56:00,
2013-03-17 01:01:00,56.6,43.3,29.80,WSW,247,0.0,0.0,61,0.00,,,0.00,WeatherCatV1.00B22,2013-03-17 05:01:00,
2013-03-17 01:06:00,56.7,44.2,29.80,WSW,247,1.0,2.0,63,0.00,,,0.00,WeatherCatV1.00B22,2013-03-17 05:06:00,
2013-03-17 01:11:00,56.7,45.9,29.80,WSW,247,0.0,3.0,67,0.00,,,0.00,WeatherCatV1.00B22,2013-03-17 05:11:00,
2013-03-17 01:16:00,56.5,45.7,29.80,WSW,247,0.0,0.0,67,0.00,,,0.00,WeatherCatV1.00B22,2013-03-17 05:16:00,
2013-03-17 01:21:00,56.4,45.2,29.80,WSW,247,0.0,0.0,66,0.00,,,0.00,WeatherCatV1.00B22,2013-03-17 05:21:00,
2013-03-17 01:26:00,56.3,44.7,29.80,WSW,247,1.0,1.0,65,0.00,,,0.00,WeatherCatV1.00B22,2013-03-17 05:26:00,
2013-03-17 01:31:00,56.2,45.0,29.80,WSW,247,0.0,2.0,66,0.00,,,0.00,WeatherCatV1.00B22,2013-03-17 05:31:00,
2013-03-17 01:36:00,56.2,45.4,29.80,WSW,247,0.0,2.0,67,0.00,,,0.00,WeatherCatV1.00B22,2013-03-17 05:36:00,
2013-03-17 01:41:00,56.1,44.5,29.80,WSW,247,0.0,1.0,65,0.00,,,0.00,WeatherCatV1.00B22,2013-03-17 05:41:00,
2013-03-17 01:46:00,56.1,44.5,29.80,WSW,244,0.0,2.0,65,0.00,,,0.00,WeatherCatV1.00B22,2013-03-17 05:46:00,
2013-03-17 01:51:00,56.0,44.0,29.80,WSW,244,0.0,2.0,64,0.00,,,0.00,WeatherCatV1.00B22,2013-03-17 05:51:00,
2013-03-17 01:56:00,56.2,44.6,29.80,WSW,244,0.0,2.0,65,0.00,,,0.00,WeatherCatV1.00B22,2013-03-17 05:56:00,
2013-03-17 02:01:00,56.2,44.6,29.80,WSW,244,0.0,1.0,65,0.00,,,0.00,WeatherCatV1.00B22,2013-03-17 06:01:00,
2013-03-17 02:06:00,56.2,44.2,29.80,WSW,244,0.0,1.0,64,0.00,,,0.00,WeatherCatV1.00B22,2013-03-17 06:06:00,
2013-03-17 02:11:00,56.2,44.2,29.80,WSW,246,0.0,0.0,64,0.00,,,0.00,WeatherCatV1.00B22,2013-03-17 06:11:00,
2013-03-17 02:16:00,56.1,44.5,29.79,WSW,246,0.0,0.0,65,0.00,,,0.00,WeatherCatV1.00B22,2013-03-17 06:16:00,
2013-03-17 02:21:00,55.9,43.5,29.79,WSW,246,0.0,0.0,63,0.00,,,0.00,WeatherCatV1.00B22,2013-03-17 06:21:00,
2013-03-17 02:26:00,55.9,43.9,29.80,WSW,246,0.0,0.0,64,0.00,,,0.00,WeatherCatV1.00B22,2013-03-17 06:26:00,
2013-03-17 02:31:00,55.7,44.1,29.80,WSW,246,0.0,0.0,65,0.00,,,0.00,WeatherCatV1.00B22,2013-03-17 06:31:00,
2013-03-17 02:36:00,55.6,44.0,29.80,WSW,246,0.0,0.0,65,0.00,,,0.00,WeatherCatV1.00B22,2013-03-17 06:36:00,
2013-03-17 02:41:00,55.5,43.5,29.80,WSW,246,0.0,0.0,64,0.00,,,0.00,WeatherCatV1.00B22,2013-03-17 06:41:00,
2013-03-17 02:46:00,55.5,44.3,29.80,WSW,246,1.0,1.0,66,0.00,,,0.00,WeatherCatV1.00B22,2013-03-17 06:46:00,
2013-03-17 02:51:00,55.4,44.6,29.80,WSW,246,1.0,3.0,67,0.00,,,0.00,WeatherCatV1.00B22,2013-03-17 06:51:00,
2013-03-17 02:56:00,55.3,44.1,29.80,WSW,246,1.0,2.0,66,0.00,,,0.00,WeatherCatV1.00B22,2013-03-17 06:56:00,
2013-03-17 03:01:00,55.1,44.3,29.80,WSW,246,0.0,1.0,67,0.00,,,0.00,WeatherCatV1.00B22,2013-03-17 07:01:00,
2013-03-17 03:06:00,55.0,44.6,29.80,WSW,246,0.0,1.0,68,0.00,,,0.00,WeatherCatV1.00B22,2013-03-17 07:06:00,
2013-03-17 03:11:00,54.8,44.8,29.80,WSW,246,2.0,2.0,69,0.00,,,0.00,WeatherCatV1.00B22,2013-03-17 07:11:00,
2013-03-17 03:16:00,54.5,45.3,29.80,WSW,248,3.0,4.0,71,0.00,,,0.00,WeatherCatV1.00B22,2013-03-17 07:16:00,
2013-03-17 03:21:00,54.1,45.3,29.80,West,276,0.0,2.0,72,0.00,,,0.00,WeatherCatV1.00B22,2013-03-17 07:21:00,
2013-03-17 03:26:00,53.7,45.3,29.80,WSW,237,1.0,3.0,73,0.00,,,0.00,WeatherCatV1.00B22,2013-03-17 07:26:00,
2013-03-17 03:31:00,53.5,44.0,29.80,WSW,248,0.0,0.0,70,0.00,,,0.00,WeatherCatV1.00B22,2013-03-17 07:31:00,
2013-03-17 03:36:00,53.4,44.2,29.80,WSW,248,0.0,0.0,71,0.00,,,0.00,WeatherCatV1.00B22,2013-03-17 07:36:00,
2013-03-17 03:41:00,53.3,43.8,29.80,WSW,248,0.0,0.0,70,0.00,,,0.00,WeatherCatV1.00B22,2013-03-17 07:41:00,
2013-03-17 03:46:00,53.2,45.1,29.80,WSW,248,1.0,2.0,74,0.00,,,0.00,WeatherCatV1.00B22,2013-03-17 07:46:00,
2013-03-17 03:51:00,53.0,44.6,29.79,WSW,248,1.0,2.0,73,0.00,,,0.00,WeatherCatV1.00B22,2013-03-17 07:51:00,
2013-03-17 03:56:00,52.8,44.4,29.79,WSW,248,0.0,0.0,73,0.00,,,0.00,WeatherCatV1.00B22,2013-03-17 07:56:00,
2013-03-17 04:01:00,52.6,44.2,29.79,WSW,248,0.0,0.0,73,0.00,,,0.00,WeatherCatV1.00B22,2013-03-17 08:01:00,
2013-03-17 04:06:00,52.5,44.5,29.79,WSW,248,0.0,0.0,74,0.00,,,0.00,WeatherCatV1.00B22,2013-03-17 08:06:00,
2013-03-17 04:11:00,52.3,44.6,29.79,WSW,248,0.0,0.0,75,0.00,,,0.00,WeatherCatV1.00B22,2013-03-17 08:11:00,
2013-03-17 04:16:00,52.2,45.2,29.79,WSW,248,0.0,1.0,77,0.00,,,0.00,WeatherCatV1.00B22,2013-03-17 08:16:00,
2013-03-17 04:21:00,52.1,44.8,29.79,WSW,248,0.0,0.0,76,0.00,,,0.00,WeatherCatV1.00B22,2013-03-17 08:21:00,
2013-03-17 04:26:00,51.9,45.3,29.79,WSW,248,0.0,0.0,78,0.00,,,0.00,WeatherCatV1.00B22,2013-03-17 08:26:00,
2013-03-17 04:31:00,51.9,45.3,29.79,WSW,248,0.0,0.0,78,0.00,,,0.00,WeatherCatV1.00B22,2013-03-17 08:31:00,
2013-03-17 04:36:00,51.7,45.1,29.79,WSW,248,0.0,0.0,78,0.00,,,0.00,WeatherCatV1.00B22,2013-03-17 08:36:00,
2013-03-17 04:41:00,51.6,44.6,29.78,WSW,248,0.0,0.0,77,0.00,,,0.00,WeatherCatV1.00B22,2013-03-17 08:41:00,
2013-03-17 04:47:00,51.5,44.9,29.79,WSW,248,0.0,0.0,78,0.00,,,0.00,WeatherCatV1.00B22,2013-03-17 08:47:00,
2013-03-17 04:52:00,51.3,44.7,29.79,WSW,248,0.0,0.0,78,0.00,,,0.00,WeatherCatV1.00B22,2013-03-17 08:52:00,
2013-03-17 04:57:00,51.2,44.6,29.79,WSW,248,0.0,0.0,78,0.00,,,0.00,WeatherCatV1.00B22,2013-03-17 08:57:00,
2013-03-17 05:02:00,51.0,44.4,29.78,WSW,248,0.0,0.0,78,0.00,,,0.00,WeatherCatV1.00B22,2013-03-17 09:02:00,
2013-03-17 05:07:00,50.9,44.3,29.79,WSW,248,0.0,0.0,78,0.00,,,0.00,WeatherCatV1.00B22,2013-03-17 09:07:00,
2013-03-17 05:12:00,50.9,44.3,29.79,WSW,248,0.0,0.0,78,0.00,,,0.00,WeatherCatV1.00B22,2013-03-17 09:12:00,
2013-03-17 05:17:00,50.8,44.2,29.79,WSW,248,0.0,0.0,78,0.00,,,0.00,WeatherCatV1.00B22,2013-03-17 09:17:00,
2013-03-17 05:22:00,50.8,44.9,29.79,WSW,248,0.0,0.0,80,0.00,,,0.00,WeatherCatV1.00B22,2013-03-17 09:22:00,
2013-03-17 05:27:00,50.6,44.7,29.79,WSW,248,0.0,0.0,80,0.00,,,0.00,WeatherCatV1.00B22,2013-03-17 09:27:00,
2013-03-17 05:32:00,50.5,43.9,29.79,WSW,248,0.0,1.0,78,0.00,,,0.00,WeatherCatV1.00B22,2013-03-17 09:32:00,
2013-03-17 05:37:00,50.5,43.9,29.79,WSW,248,0.0,1.0,78,0.00,,,0.00,WeatherCatV1.00B22,2013-03-17 09:37:00,
2013-03-17 05:42:00,50.5,43.6,29.80,WSW,248,0.0,1.0,77,0.00,,,0.00,WeatherCatV1.00B22,2013-03-17 09:42:00,
2013-03-17 05:47:00,50.6,43.3,29.80,WSW,248,1.0,1.0,76,0.00,,,0.00,WeatherCatV1.00B22,2013-03-17 09:47:00,
2013-03-17 05:52:00,50.6,43.3,29.80,WSW,248,0.0,1.0,76,0.00,,,0.00,WeatherCatV1.00B22,2013-03-17 09:52:00,
2013-03-17 05:57:00,50.6,43.7,29.80,WSW,248,0.0,0.0,77,0.00,,,0.00,WeatherCatV1.00B22,2013-03-17 09:57:00,
2013-03-17 06:02:00,50.6,44.0,29.80,WSW,248,0.0,0.0,78,0.00,,,0.00,WeatherCatV1.00B22,2013-03-17 10:02:00,
2013-03-17 06:07:00,50.5,43.6,29.81,WSW,248,1.0,2.0,77,0.00,,,0.00,WeatherCatV1.00B22,2013-03-17 10:07:00,
2013-03-17 06:12:00,50.4,43.5,29.81,WSW,248,1.0,2.0,77,0.00,,,0.00,WeatherCatV1.00B22,2013-03-17 10:12:00,
2013-03-17 06:17:00,50.3,43.4,29.81,WSW,248,0.0,2.0,77,0.00,,,0.00,WeatherCatV1.00B22,2013-03-17 10:17:00,
2013-03-17 06:22:00,50.2,43.6,29.81,WSW,248,0.0,0.0,78,0.00,,,0.00,WeatherCatV1.00B22,2013-03-17 10:22:00,
2013-03-17 06:27:00,50.1,43.5,29.82,WSW,248,0.0,0.0,78,0.00,,,0.00,WeatherCatV1.00B22,2013-03-17 10:27:00,
2013-03-17 06:32:00,50.1,43.5,29.82,WSW,248,0.0,1.0,78,0.00,,,0.00,WeatherCatV1.00B22,2013-03-17 10:32:00,
2013-03-17 06:37:00,50.0,43.7,29.82,WSW,248,0.0,0.0,79,0.00,,,0.00,WeatherCatV1.00B22,2013-03-17 10:37:00,
2013-03-17 06:42:00,49.9,44.0,29.82,WSW,248,0.0,0.0,80,0.00,,,0.00,WeatherCatV1.00B22,2013-03-17 10:42:00,
2013-03-17 06:47:00,49.7,43.8,29.82,WSW,248,0.0,0.0,80,0.00,,,0.00,WeatherCatV1.00B22,2013-03-17 10:47:00,
2013-03-17 06:52:00,49.6,43.7,29.82,WSW,248,0.0,0.0,80,0.00,,,0.00,WeatherCatV1.00B22,2013-03-17 10:52:00,
2013-03-17 06:57:00,49.5,43.6,29.82,WSW,248,0.0,0.0,80,0.00,,,0.00,WeatherCatV1.00B22,2013-03-17 10:57:00,
2013-03-17 07:02:00,49.4,43.5,29.82,WSW,248,0.0,0.0,80,0.00,,,0.00,WeatherCatV1.00B22,2013-03-17 11:02:00,
2013-03-17 07:07:00,49.2,43.6,29.82,WSW,248,0.0,0.0,81,0.00,,,0.00,WeatherCatV1.00B22,2013-03-17 11:07:00,
2013-03-17 07:12:00,49.1,43.5,29.82,WSW,248,0.0,0.0,81,0.00,,,0.00,WeatherCatV1.00B22,2013-03-17 11:12:00,
2013-03-17 07:17:00,49.0,43.4,29.82,WSW,248,0.0,0.0,81,0.00,,,0.00,WeatherCatV1.00B22,2013-03-17 11:17:00,
2013-03-17 07:22:00,48.9,43.6,29.82,WSW,248,0.0,0.0,82,0.00,,,0.00,WeatherCatV1.00B22,2013-03-17 11:22:00,
2013-03-17 07:27:00,48.9,43.6,29.82,WSW,248,0.0,0.0,82,0.00,,,0.00,WeatherCatV1.00B22,2013-03-17 11:27:00,
2013-03-17 07:32:00,48.9,43.6,29.82,WSW,248,0.0,1.0,82,0.00,,,0.00,WeatherCatV1.00B22,2013-03-17 11:32:00,
2013-03-17 07:37:00,48.9,43.6,29.82,WSW,248,0.0,0.0,82,0.00,,,0.00,WeatherCatV1.00B22,2013-03-17 11:37:00,
2013-03-17 07:42:00,48.8,43.9,29.82,WSW,248,0.0,0.0,83,0.00,,,0.00,WeatherCatV1.00B22,2013-03-17 11:42:00,
2013-03-17 07:47:00,48.7,43.8,29.82,WSW,248,1.0,2.0,83,0.00,,,0.00,WeatherCatV1.00B22,2013-03-17 11:47:00,
2013-03-17 07:52:00,48.6,44.3,29.82,WSW,248,2.0,2.0,85,0.00,,,0.00,WeatherCatV1.00B22,2013-03-17 11:52:00,
2013-03-17 07:57:00,48.5,44.5,29.83,WSW,248,1.0,1.0,86,0.00,,,0.00,WeatherCatV1.00B22,2013-03-17 11:57:00,
2013-03-17 08:02:00,48.5,44.5,29.83,WSW,248,0.0,2.0,86,0.00,,,0.00,WeatherCatV1.00B22,2013-03-17 12:02:00,
2013-03-17 08:07:00,48.6,44.6,29.83,WSW,248,1.0,1.0,86,0.00,,,0.00,WeatherCatV1.00B22,2013-03-17 12:07:00,
2013-03-17 08:12:00,48.7,45.0,29.83,WSW,248,0.0,1.0,87,0.00,,,0.00,WeatherCatV1.00B22,2013-03-17 12:12:00,
2013-03-17 08:17:00,48.9,45.2,29.84,WSW,248,0.0,2.0,87,0.00,,,0.00,WeatherCatV1.00B22,2013-03-17 12:17:00,
2013-03-17 08:21:00,49.1,45.4,29.84,WSW,248,0.0,1.0,87,0.00,,,0.00,WeatherCatV1.00B22,2013-03-17 12:21:00,
2013-03-17 08:26:00,49.4,45.7,29.84,WSW,248,0.0,1.0,87,0.00,,,0.00,WeatherCatV1.00B22,2013-03-17 12:26:00,
2013-03-17 08:31:00,49.7,46.0,29.84,WSW,248,0.0,2.0,87,0.00,,,0.00,WeatherCatV1.00B22,2013-03-17 12:31:00,
2013-03-17 08:36:00,50.0,46.0,29.84,WSW,248,0.0,2.0,86,0.00,,,0.00,WeatherCatV1.00B22,2013-03-17 12:36:00,
2013-03-17 08:41:00,50.4,46.7,29.84,WSW,248,0.0,0.0,87,0.00,,,0.00,WeatherCatV1.00B22,2013-03-17 12:41:00,
2013-03-17 08:46:00,50.8,47.1,29.84,WSW,248,0.0,0.0,87,0.00,,,0.00,WeatherCatV1.00B22,2013-03-17 12:46:00,
2013-03-17 08:52:00,51.2,47.2,29.85,WSW,248,0.0,0.0,86,0.00,,,0.00,WeatherCatV1.00B22,2013-03-17 12:52:00,
2013-03-17 08:57:00,51.7,47.6,29.85,WSW,248,0.0,0.0,86,0.00,,,0.00,WeatherCatV1.00B22,2013-03-17 12:57:00,
2013-03-17 09:02:00,52.2,47.8,29.85,WSW,248,0.0,0.0,85,0.00,,,0.00,WeatherCatV1.00B22,2013-03-17 13:02:00,
2013-03-17 09:06:00,52.7,48.0,29.85,WSW,248,0.0,1.0,84,0.00,,,0.00,WeatherCatV1.00B22,2013-03-17 13:06:00,
2013-03-17 09:11:00,53.3,48.3,29.85,WSW,248,0.0,1.0,83,0.00,,,0.00,WeatherCatV1.00B22,2013-03-17 13:11:00,
2013-03-17 09:16:00,54.0,48.6,29.85,WSW,248,0.0,1.0,82,0.00,,,0.00,WeatherCatV1.00B22,2013-03-17 13:16:00,
2013-03-17 09:21:00,54.8,49.1,29.85,WSW,248,0.0,2.0,81,0.00,,,0.00,WeatherCatV1.00B22,2013-03-17 13:21:00,
2013-03-17 09:26:00,55.6,49.5,29.85,WSW,248,0.0,2.0,80,0.00,,,0.00,WeatherCatV1.00B22,2013-03-17 13:26:00,
2013-03-17 09:31:00,56.3,49.9,29.85,NNW,344,0.0,2.0,79,0.00,,,0.00,WeatherCatV1.00B22,2013-03-17 13:31:00,
2013-03-17 09:36:00,57.1,50.6,29.85,WSW,250,0.0,2.0,79,0.00,,,0.00,WeatherCatV1.00B22,2013-03-17 13:36:00,
2013-03-17 09:41:00,58.0,51.2,29.84,WSW,258,1.0,4.0,78,0.00,,,0.00,WeatherCatV1.00B22,2013-03-17 13:41:00,
2013-03-17 09:46:00,58.7,51.5,29.84,WSW,238,2.0,4.0,77,0.00,,,0.00,WeatherCatV1.00B22,2013-03-17 13:46:00,
2013-03-17 09:51:00,59.3,51.4,29.84,NE,39,2.0,3.0,75,0.00,,,0.00,WeatherCatV1.00B22,2013-03-17 13:51:00,
2013-03-17 09:56:00,59.8,51.9,29.84,WNW,289,2.0,5.0,75,0.00,,,0.00,WeatherCatV1.00B22,2013-03-17 13:56:00,
2013-03-17 10:01:00,60.2,52.2,29.84,SW,234,2.0,6.0,75,0.00,,,0.00,WeatherCatV1.00B22,2013-03-17 14:01:00,
2013-03-17 10:06:00,60.7,52.4,29.85,South,177,1.0,4.0,74,0.00,,,0.00,WeatherCatV1.00B22,2013-03-17 14:06:00,
2013-03-17 10:11:00,61.0,52.3,29.85,WSW,246,2.0,4.0,73,0.00,,,0.00,WeatherCatV1.00B22,2013-03-17 14:11:00,
2013-03-17 10:16:00,61.3,52.6,29.85,WNW,291,0.0,1.0,73,0.00,,,0.00,WeatherCatV1.00B22,2013-03-17 14:16:00,
2013-03-17 10:21:00,61.6,52.5,29.85,WSW,240,2.0,6.0,72,0.00,,,0.00,WeatherCatV1.00B22,2013-03-17 14:21:00,
2013-03-17 10:26:00,61.9,52.4,29.85,SW,230,2.0,6.0,71,0.00,,,0.00,WeatherCatV1.00B22,2013-03-17 14:26:00,
2013-03-17 10:31:00,62.1,52.6,29.85,SSW,200,3.0,6.0,71,0.00,,,0.00,WeatherCatV1.00B22,2013-03-17 14:31:00,
2013-03-17 10:36:00,62.3,53.2,29.84,South,178,1.0,4.0,72,0.00,,,0.00,WeatherCatV1.00B22,2013-03-17 14:36:00,
2013-03-17 10:41:00,62.8,52.9,29.84,West,262,5.0,5.0,70,0.00,,,0.00,WeatherCatV1.00B22,2013-03-17 14:41:00,
2013-03-17 10:46:00,63.1,53.2,29.84,NNW,344,2.0,4.0,70,0.00,,,0.00,WeatherCatV1.00B22,2013-03-17 14:46:00,
2013-03-17 10:51:00,63.4,53.0,29.85,WSW,240,2.0,4.0,69,0.00,,,0.00,WeatherCatV1.00B22,2013-03-17 14:51:00,
2013-03-17 10:56:00,63.6,53.2,29.85,WSW,242,4.0,6.0,69,0.00,,,0.00,WeatherCatV1.00B22,2013-03-17 14:56:00,
2013-03-17 11:01:00,63.7,53.3,29.84,SW,219,1.0,5.0,69,0.00,,,0.00,WeatherCatV1.00B22,2013-03-17 15:01:00,
2013-03-17 11:06:00,64.0,53.6,29.84,North,5,3.0,5.0,69,0.00,,,0.00,WeatherCatV1.00B22,2013-03-17 15:06:00,
2013-03-17 11:11:00,64.3,53.5,29.84,WNW,291,1.0,3.0,68,0.00,,,0.00,WeatherCatV1.00B22,2013-03-17 15:11:00,
2013-03-17 11:16:00,64.5,53.3,29.84,WNW,292,1.0,3.0,67,0.00,,,0.00,WeatherCatV1.00B22,2013-03-17 15:16:00,
2013-03-17 11:21:00,64.6,53.4,29.84,SW,227,3.0,5.0,67,0.00,,,0.00,WeatherCatV1.00B22,2013-03-17 15:21:00,
2013-03-17 11:26:00,64.8,53.6,29.84,West,262,1.0,3.0,67,0.00,,,0.00,WeatherCatV1.00B22,2013-03-17 15:26:00,
2013-03-17 11:31:00,65.2,53.5,29.84,NW,304,1.0,4.0,66,0.00,,,0.00,WeatherCatV1.00B22,2013-03-17 15:31:00,
2013-03-17 11:36:00,65.6,53.5,29.84,West,263,2.0,5.0,65,0.00,,,0.00,WeatherCatV1.00B22,2013-03-17 15:36:00,
2013-03-17 11:41:00,65.8,53.7,29.84,SW,222,1.0,4.0,65,0.00,,,0.00,WeatherCatV1.00B22,2013-03-17 15:41:00,
2013-03-17 11:46:00,65.8,53.7,29.84,WSW,244,1.0,4.0,65,0.00,,,0.00,WeatherCatV1.00B22,2013-03-17 15:46:00,
2013-03-17 11:51:00,65.8,53.7,29.84,WSW,242,0.0,6.0,65,0.00,,,0.00,WeatherCatV1.00B22,2013-03-17 15:51:00,
2013-03-17 11:56:00,66.2,53.7,29.84,SW,225,1.0,5.0,64,0.00,,,0.00,WeatherCatV1.00B22,2013-03-17 15:56:00,
2013-03-17 12:01:00,66.6,53.6,29.84,SW,236,6.0,7.0,63,0.00,,,0.00,WeatherCatV1.00B22,2013-03-17 16:01:00,
2013-03-17 12:06:00,66.9,53.9,29.83,WSW,246,3.0,4.0,63,0.00,,,0.00,WeatherCatV1.00B22,2013-03-17 16:06:00,
2013-03-17 12:11:00,66.8,53.8,29.83,West,272,1.0,3.0,63,0.00,,,0.00,WeatherCatV1.00B22,2013-03-17 16:11:00,
2013-03-17 12:16:00,66.7,53.7,29.83,West,271,2.0,4.0,63,0.00,,,0.00,WeatherCatV1.00B22,2013-03-17 16:16:00,
2013-03-17 12:21:00,66.7,54.1,29.83,SW,232,2.0,4.0,64,0.00,,,0.00,WeatherCatV1.00B22,2013-03-17 16:21:00,
2013-03-17 12:26:00,67.3,54.3,29.83,SW,226,1.0,3.0,63,0.00,,,0.00,WeatherCatV1.00B22,2013-03-17 16:26:00,
2013-03-17 12:31:00,67.9,54.4,29.83,WSW,244,0.0,5.0,62,0.00,,,0.00,WeatherCatV1.00B22,2013-03-17 16:31:00,
2013-03-17 12:36:00,67.9,53.9,29.83,SSW,204,0.0,2.0,61,0.00,,,0.00,WeatherCatV1.00B22,2013-03-17 16:36:00,
2013-03-17 12:41:00,67.8,53.8,29.83,WSW,248,2.0,5.0,61,0.00,,,0.00,WeatherCatV1.00B22,2013-03-17 16:41:00,
2013-03-17 12:46:00,67.5,54.0,29.83,SW,223,0.0,3.0,62,0.00,,,0.00,WeatherCatV1.00B22,2013-03-17 16:46:00,
2013-03-17 12:51:00,67.2,53.7,29.82,SSE,167,2.0,3.0,62,0.00,,,0.00,WeatherCatV1.00B22,2013-03-17 16:51:00,
2013-03-17 12:56:00,67.1,54.1,29.82,SW,217,2.0,3.0,63,0.00,,,0.00,WeatherCatV1.00B22,2013-03-17 16:56:00,
2013-03-17 13:01:00,67.2,54.2,29.82,South,173,1.0,2.0,63,0.00,,,0.00,WeatherCatV1.00B22,2013-03-17 17:01:00,
2013-03-17 13:06:00,67.2,54.2,29.82,SW,225,3.0,5.0,63,0.00,,,0.00,WeatherCatV1.00B22,2013-03-17 17:06:00,
2013-03-17 13:11:00,67.0,54.0,29.82,WSW,237,1.0,3.0,63,0.00,,,0.00,WeatherCatV1.00B22,2013-03-17 17:11:00,
2013-03-17 13:16:00,67.0,54.4,29.81,SW,234,0.0,2.0,64,0.00,,,0.00,WeatherCatV1.00B22,2013-03-17 17:16:00,
2013-03-17 13:21:00,67.3,54.3,29.81,West,263,4.0,4.0,63,0.00,,,0.00,WeatherCatV1.00B22,2013-03-17 17:21:00,
2013-03-17 13:26:00,68.0,55.4,29.81,WSW,237,1.0,4.0,64,0.00,,,0.00,WeatherCatV1.00B22,2013-03-17 17:26:00,
2013-03-17 13:31:00,68.5,54.5,29.81,West,273,1.0,2.0,61,0.00,,,0.00,WeatherCatV1.00B22,2013-03-17 17:31:00,
2013-03-17 13:36:00,68.6,54.1,29.81,WSW,250,0.0,2.0,60,0.00,,,0.00,WeatherCatV1.00B22,2013-03-17 17:36:00,
2013-03-17 13:41:00,68.8,54.3,29.81,NW,309,1.0,3.0,60,0.00,,,0.00,WeatherCatV1.00B22,2013-03-17 17:41:00,
2013-03-17 13:46:00,69.1,54.2,29.80,West,273,1.0,4.0,59,0.00,,,0.00,WeatherCatV1.00B22,2013-03-17 17:46:00,
2013-03-17 13:51:00,69.6,54.2,29.80,East,86,1.0,2.0,58,0.00,,,0.00,WeatherCatV1.00B22,2013-03-17 17:51:00,
2013-03-17 13:56:00,69.7,54.2,29.79,SSW,196,3.0,4.0,58,0.00,,,0.00,WeatherCatV1.00B22,2013-03-17 17:56:00,
2013-03-17 14:01:00,69.7,54.2,29.80,WSW,248,1.0,5.0,58,0.00,,,0.00,WeatherCatV1.00B22,2013-03-17 18:01:00,
2013-03-17 14:06:00,69.4,54.4,29.80,WSW,239,1.0,3.0,59,0.00,,,0.00,WeatherCatV1.00B22,2013-03-17 18:06:00,
2013-03-17 14:11:00,69.2,54.7,29.79,SSW,194,4.0,5.0,60,0.00,,,0.00,WeatherCatV1.00B22,2013-03-17 18:11:00,
2013-03-17 14:16:00,69.0,54.5,29.79,WNW,284,0.0,3.0,60,0.00,,,0.00,WeatherCatV1.00B22,2013-03-17 18:16:00,
2013-03-17 14:21:00,69.0,55.0,29.79,West,277,1.0,5.0,61,0.00,,,0.00,WeatherCatV1.00B22,2013-03-17 18:21:00,
2013-03-17 14:26:00,69.0,55.0,29.79,WSW,237,1.0,3.0,61,0.00,,,0.00,WeatherCatV1.00B22,2013-03-17 18:26:00,
2013-03-17 14:31:00,69.0,54.5,29.78,West,263,1.0,1.0,60,0.00,,,0.00,WeatherCatV1.00B22,2013-03-17 18:31:00,
2013-03-17 14:36:00,69.2,54.3,29.78,West,265,3.0,4.0,59,0.00,,,0.00,WeatherCatV1.00B22,2013-03-17 18:36:00,
2013-03-17 14:41:00,69.6,53.7,29.78,WSW,255,0.0,6.0,57,0.00,,,0.00,WeatherCatV1.00B22,2013-03-17 18:41:00,
2013-03-17 14:46:00,69.8,54.3,29.78,SW,235,1.0,3.0,58,0.00,,,0.00,WeatherCatV1.00B22,2013-03-17 18:46:00,
2013-03-17 14:51:00,69.9,54.0,29.78,West,269,0.0,3.0,57,0.00,,,0.00,WeatherCatV1.00B22,2013-03-17 18:51:00,
2013-03-17 14:56:00,70.2,53.3,29.78,SW,234,3.0,4.0,55,0.00,,,0.00,WeatherCatV1.00B22,2013-03-17 18:56:00,
2013-03-17 15:01:00,70.3,53.4,29.77,SW,235,0.0,2.0,55,0.00,,,0.00,WeatherCatV1.00B22,2013-03-17 19:01:00,
2013-03-17 15:06:00,70.2,53.3,29.77,SW,233,3.0,4.0,55,0.00,,,0.00,WeatherCatV1.00B22,2013-03-17 19:06:00,
2013-03-17 15:11:00,70.1,53.7,29.77,SW,234,0.0,2.0,56,0.00,,,0.00,WeatherCatV1.00B22,2013-03-17 19:11:00,
2013-03-17 15:16:00,70.0,54.1,29.77,WSW,243,1.0,3.0,57,0.00,,,0.00,WeatherCatV1.00B22,2013-03-17 19:16:00,
2013-03-17 15:21:00,70.1,53.7,29.76,SW,215,2.0,3.0,56,0.00,,,0.00,WeatherCatV1.00B22,2013-03-17 19:21:00,
2013-03-17 15:26:00,69.9,53.0,29.77,West,265,2.0,2.0,55,0.00,,,0.00,WeatherCatV1.00B22,2013-03-17 19:26:00,
2013-03-17 15:31:00,69.8,53.9,29.77,West,277,0.0,2.0,57,0.00,,,0.00,WeatherCatV1.00B22,2013-03-17 19:31:00,
2013-03-17 15:36:00,69.8,53.9,29.76,WSW,241,5.0,5.0,57,0.00,,,0.00,WeatherCatV1.00B22,2013-03-17 19:36:00,
2013-03-17 15:41:00,69.9,53.5,29.77,South,176,2.0,3.0,56,0.00,,,0.00,WeatherCatV1.00B22,2013-03-17 19:41:00,
2013-03-17 15:46:00,70.0,53.6,29.77,SSW,202,2.0,3.0,56,0.00,,,0.00,WeatherCatV1.00B22,2013-03-17 19:46:00,
2013-03-17 15:51:00,69.8,53.9,29.76,West,261,2.0,3.0,57,0.00,,,0.00,WeatherCatV1.00B22,2013-03-17 19:51:00,
2013-03-17 15:56:00,70.0,54.1,29.76,West,263,0.0,4.0,57,0.00,,,0.00,WeatherCatV1.00B22,2013-03-17 19:56:00,
2013-03-17 16:01:00,70.1,54.1,29.76,SSW,208,2.0,2.0,57,0.00,,,0.00,WeatherCatV1.00B22,2013-03-17 20:01:00,
2013-03-17 16:06:00,70.2,53.8,29.76,WSW,250,3.0,5.0,56,0.00,,,0.00,WeatherCatV1.00B22,2013-03-17 20:06:00,
2013-03-17 16:11:00,70.0,53.6,29.76,SW,226,3.0,6.0,56,0.00,,,0.00,WeatherCatV1.00B22,2013-03-17 20:11:00,
2013-03-17 16:16:00,69.8,53.9,29.75,WNW,288,1.0,3.0,57,0.00,,,0.00,WeatherCatV1.00B22,2013-03-17 20:16:00,
2013-03-17 16:21:00,69.7,53.3,29.75,SSW,199,1.0,4.0,56,0.00,,,0.00,WeatherCatV1.00B22,2013-03-17 20:21:00,
2013-03-17 16:26:00,69.7,52.8,29.75,WSW,245,2.0,3.0,55,0.00,,,0.00,WeatherCatV1.00B22,2013-03-17 20:26:00,
2013-03-17 16:31:00,69.8,52.9,29.75,West,267,0.0,3.0,55,0.00,,,0.00,WeatherCatV1.00B22,2013-03-17 20:31:00,
2013-03-17 16:36:00,69.9,53.0,29.75,SW,219,3.0,5.0,55,0.00,,,0.00,WeatherCatV1.00B22,2013-03-17 20:36:00,
2013-03-17 16:41:00,70.0,52.6,29.75,SW,215,0.0,2.0,54,0.00,,,0.00,WeatherCatV1.00B22,2013-03-17 20:41:00,
2013-03-17 16:46:00,70.1,52.7,29.75,SW,227,1.0,2.0,54,0.00,,,0.00,WeatherCatV1.00B22,2013-03-17 20:46:00,
2013-03-17 16:51:00,70.0,52.6,29.75,WSW,244,4.0,4.0,54,0.00,,,0.00,WeatherCatV1.00B22,2013-03-17 20:51:00,
2013-03-17 16:56:00,70.0,52.6,29.75,WSW,243,2.0,4.0,54,0.00,,,0.00,WeatherCatV1.00B22,2013-03-17 20:56:00,
2013-03-17 17:01:00,69.9,52.5,29.75,SSW,213,3.0,5.0,54,0.00,,,0.00,WeatherCatV1.00B22,2013-03-17 21:01:00,
2013-03-17 17:06:00,70.0,52.1,29.75,SW,234,2.0,4.0,53,0.00,,,0.00,WeatherCatV1.00B22,2013-03-17 21:06:00,
2013-03-17 17:11:00,70.3,52.3,29.75,WSW,252,0.0,3.0,53,0.00,,,0.00,WeatherCatV1.00B22,2013-03-17 21:11:00,
2013-03-17 17:16:00,70.3,51.8,29.75,WSW,250,3.0,5.0,52,0.00,,,0.00,WeatherCatV1.00B22,2013-03-17 21:16:00,
2013-03-17 17:21:00,70.1,51.6,29.75,SW,236,4.0,5.0,52,0.00,,,0.00,WeatherCatV1.00B22,2013-03-17 21:21:00,
2013-03-17 17:26:00,69.8,51.9,29.75,SW,215,2.0,3.0,53,0.00,,,0.00,WeatherCatV1.00B22,2013-03-17 21:26:00,
2013-03-17 17:31:00,69.6,51.7,29.75,SSW,198,2.0,3.0,53,0.00,,,0.00,WeatherCatV1.00B22,2013-03-17 21:31:00,
2013-03-17 17:36:00,69.4,51.0,29.75,WSW,241,2.0,4.0,52,0.00,,,0.00,WeatherCatV1.00B22,2013-03-17 21:36:00,
2013-03-17 17:41:00,69.2,50.8,29.75,SSW,211,0.0,3.0,52,0.00,,,0.00,WeatherCatV1.00B22,2013-03-17 21:41:00,
2013-03-17 17:46:00,69.2,51.3,29.75,WSW,254,1.0,2.0,53,0.00,,,0.00,WeatherCatV1.00B22,2013-03-17 21:46:00,
2013-03-17 17:51:00,69.3,50.9,29.75,WSW,257,1.0,4.0,52,0.00,,,0.00,WeatherCatV1.00B22,2013-03-17 21:51:00,
2013-03-17 17:56:00,69.2,50.3,29.75,SW,225,1.0,3.0,51,0.00,,,0.00,WeatherCatV1.00B22,2013-03-17 21:56:00,
2013-03-17 18:01:00,69.0,50.6,29.75,SSW,195,2.0,4.0,52,0.00,,,0.00,WeatherCatV1.00B22,2013-03-17 22:01:00,
2013-03-17 18:06:00,68.8,49.9,29.75,WSW,250,2.0,2.0,51,0.00,,,0.00,WeatherCatV1.00B22,2013-03-17 22:06:00,
2013-03-17 18:11:00,68.7,49.8,29.75,SW,222,0.0,1.0,51,0.00,,,0.00,WeatherCatV1.00B22,2013-03-17 22:11:00,
2013-03-17 18:16:00,68.5,50.2,29.75,SW,223,0.0,2.0,52,0.00,,,0.00,WeatherCatV1.00B22,2013-03-17 22:16:00,
2013-03-17 18:21:00,68.3,50.0,29.75,SW,223,0.0,2.0,52,0.00,,,0.00,WeatherCatV1.00B22,2013-03-17 22:21:00,
2013-03-17 18:26:00,68.1,49.8,29.75,SW,214,0.0,3.0,52,0.00,,,0.00,WeatherCatV1.00B22,2013-03-17 22:26:00,
2013-03-17 18:31:00,68.0,49.7,29.75,SW,236,2.0,3.0,52,0.00,,,0.00,WeatherCatV1.00B22,2013-03-17 22:31:00,
2013-03-17 18:36:00,68.0,49.7,29.75,WSW,252,0.0,1.0,52,0.00,,,0.00,WeatherCatV1.00B22,2013-03-17 22:36:00,
2013-03-17 18:41:00,67.9,49.6,29.75,SSW,207,2.0,3.0,52,0.00,,,0.00,WeatherCatV1.00B22,2013-03-17 22:41:00,
2013-03-17 18:46:00,67.7,49.4,29.75,SSW,194,1.0,4.0,52,0.00,,,0.00,WeatherCatV1.00B22,2013-03-17 22:46:00,
2013-03-17 18:51:00,67.6,50.4,29.75,SW,226,1.0,3.0,54,0.00,,,0.00,WeatherCatV1.00B22,2013-03-17 22:51:00,
2013-03-17 18:56:00,67.3,50.6,29.75,SW,236,2.0,3.0,55,0.00,,,0.00,WeatherCatV1.00B22,2013-03-17 22:56:00,
2013-03-17 19:01:00,67.1,50.4,29.75,WSW,240,0.0,2.0,55,0.00,,,0.00,WeatherCatV1.00B22,2013-03-17 23:01:00,
2013-03-17 19:06:00,66.9,50.7,29.75,SW,222,1.0,2.0,56,0.00,,,0.00,WeatherCatV1.00B22,2013-03-17 23:06:00,
2013-03-17 19:11:00,66.7,51.0,29.76,SW,215,1.0,2.0,57,0.00,,,0.00,WeatherCatV1.00B22,2013-03-17 23:11:00,
2013-03-17 19:16:00,66.5,51.3,29.76,SW,219,2.0,2.0,58,0.00,,,0.00,WeatherCatV1.00B22,2013-03-17 23:16:00,
2013-03-17 19:21:00,66.2,51.0,29.76,WSW,242,2.0,4.0,58,0.00,,,0.00,WeatherCatV1.00B22,2013-03-17 23:21:00,
2013-03-17 19:26:00,65.9,50.7,29.76,SW,221,2.0,2.0,58,0.00,,,0.00,WeatherCatV1.00B22,2013-03-17 23:26:00,
2013-03-17 19:31:00,65.6,50.4,29.76,SW,220,2.0,4.0,58,0.00,,,0.00,WeatherCatV1.00B22,2013-03-17 23:31:00,
2013-03-17 19:36:00,65.4,50.2,29.76,SW,229,1.0,3.0,58,0.00,,,0.00,WeatherCatV1.00B22,2013-03-17 23:36:00,
2013-03-17 19:41:00,65.3,50.1,29.77,SW,236,2.0,3.0,58,0.00,,,0.00,WeatherCatV1.00B22,2013-03-17 23:41:00,
2013-03-17 19:46:00,65.1,49.5,29.77,SW,219,1.0,1.0,57,0.00,,,0.00,WeatherCatV1.00B22,2013-03-17 23:46:00,
2013-03-17 19:51:00,65.0,49.4,29.77,WSW,237,0.0,1.0,57,0.00,,,0.00,WeatherCatV1.00B22,2013-03-17 23:51:00,
2013-03-17 19:56:00,64.8,49.7,29.77,WSW,250,0.0,3.0,58,0.00,,,0.00,WeatherCatV1.00B22,2013-03-17 23:56:00,
2013-03-17 20:01:00,64.6,49.5,29.77,WSW,250,0.0,1.0,58,0.00,,,0.00,WeatherCatV1.00B22,2013-03-18 00:01:00,
2013-03-17 20:07:00,64.4,49.3,29.78,SSW,204,1.0,2.0,58,0.00,,,0.00,WeatherCatV1.00B22,2013-03-18 00:07:00,
2013-03-17 20:12:00,64.2,49.1,29.78,SW,227,2.0,3.0,58,0.00,,,0.00,WeatherCatV1.00B22,2013-03-18 00:12:00,
2013-03-17 20:17:00,64.1,49.5,29.78,West,263,3.0,4.0,59,0.00,,,0.00,WeatherCatV1.00B22,2013-03-18 00:17:00,
2013-03-17 20:22:00,64.0,49.4,29.78,SW,219,1.0,2.0,59,0.00,,,0.00,WeatherCatV1.00B22,2013-03-18 00:22:00,
2013-03-17 20:27:00,63.8,49.2,29.78,SW,230,1.0,3.0,59,0.00,,,0.00,WeatherCatV1.00B22,2013-03-18 00:27:00,
2013-03-17 20:32:00,63.7,49.1,29.78,SW,230,0.0,2.0,59,0.00,,,0.00,WeatherCatV1.00B22,2013-03-18 00:32:00,
2013-03-17 20:37:00,63.6,49.5,29.78,SSW,196,1.0,1.0,60,0.00,,,0.00,WeatherCatV1.00B22,2013-03-18 00:37:00,
2013-03-17 20:42:00,63.4,49.3,29.78,WSW,237,2.0,2.0,60,0.00,,,0.00,WeatherCatV1.00B22,2013-03-18 00:42:00,
2013-03-17 20:47:00,63.3,49.2,29.79,WSW,245,2.0,2.0,60,0.00,,,0.00,WeatherCatV1.00B22,2013-03-18 00:47:00,
2013-03-17 20:52:00,63.2,49.5,29.79,WSW,245,0.0,2.0,61,0.00,,,0.00,WeatherCatV1.00B22,2013-03-18 00:52:00,
2013-03-17 20:57:00,63.0,49.8,29.79,WSW,245,0.0,0.0,62,0.00,,,0.00,WeatherCatV1.00B22,2013-03-18 00:57:00,
2013-03-17 21:02:00,62.8,49.6,29.79,WSW,245,0.0,0.0,62,0.00,,,0.00,WeatherCatV1.00B22,2013-03-18 01:02:00,
2013-03-17 21:07:00,62.7,49.5,29.79,WSW,245,0.0,0.0,62,0.00,,,0.00,WeatherCatV1.00B22,2013-03-18 01:07:00,
2013-03-17 21:12:00,62.5,49.3,29.79,WSW,245,0.0,0.0,62,0.00,,,0.00,WeatherCatV1.00B22,2013-03-18 01:12:00,
2013-03-17 21:17:00,62.3,49.5,29.79,WSW,245,0.0,0.0,63,0.00,,,0.00,WeatherCatV1.00B22,2013-03-18 01:17:00,
2013-03-17 21:22:00,62.2,49.4,29.79,WSW,245,0.0,0.0,63,0.00,,,0.00,WeatherCatV1.00B22,2013-03-18 01:22:00,
2013-03-17 21:27:00,62.0,49.3,29.79,WSW,245,0.0,0.0,63,0.00,,,0.00,WeatherCatV1.00B22,2013-03-18 01:27:00,
2013-03-17 21:32:00,61.8,49.1,29.80,WSW,245,0.0,0.0,63,0.00,,,0.00,WeatherCatV1.00B22,2013-03-18 01:32:00,
2013-03-17 21:37:00,61.7,49.4,29.80,WSW,245,0.0,0.0,64,0.00,,,0.00,WeatherCatV1.00B22,2013-03-18 01:37:00,
2013-03-17 21:42:00,61.5,49.6,29.80,WSW,245,0.0,0.0,65,0.00,,,0.00,WeatherCatV1.00B22,2013-03-18 01:42:00,
2013-03-17 21:47:00,61.3,49.4,29.80,WSW,245,0.0,0.0,65,0.00,,,0.00,WeatherCatV1.00B22,2013-03-18 01:47:00,
2013-03-17 21:52:00,61.1,49.2,29.80,WSW,245,0.0,0.0,65,0.00,,,0.00,WeatherCatV1.00B22,2013-03-18 01:52:00,
2013-03-17 21:57:00,60.9,49.1,29.80,WSW,245,0.0,0.0,65,0.00,,,0.00,WeatherCatV1.00B22,2013-03-18 01:57:00,
2013-03-17 22:02:00,60.7,49.3,29.80,WSW,245,0.0,0.0,66,0.00,,,0.00,WeatherCatV1.00B22,2013-03-18 02:02:00,
2013-03-17 22:07:00,60.6,49.2,29.80,WSW,245,0.0,0.0,66,0.00,,,0.00,WeatherCatV1.00B22,2013-03-18 02:07:00,
2013-03-17 22:12:00,60.5,49.5,29.80,WSW,245,0.0,0.0,67,0.00,,,0.00,WeatherCatV1.00B22,2013-03-18 02:12:00,
2013-03-17 22:17:00,60.4,49.4,29.80,WSW,245,0.0,0.0,67,0.00,,,0.00,WeatherCatV1.00B22,2013-03-18 02:17:00,
2013-03-17 22:22:00,60.2,49.6,29.80,WSW,245,0.0,0.0,68,0.00,,,0.00,WeatherCatV1.00B22,2013-03-18 02:22:00,
2013-03-17 22:27:00,60.1,49.5,29.81,WSW,245,0.0,0.0,68,0.00,,,0.00,WeatherCatV1.00B22,2013-03-18 02:27:00,
2013-03-17 22:32:00,59.9,49.3,29.81,WSW,245,0.0,0.0,68,0.00,,,0.00,WeatherCatV1.00B22,2013-03-18 02:32:00,
2013-03-17 22:37:00,59.8,49.6,29.81,WSW,245,0.0,0.0,69,0.00,,,0.00,WeatherCatV1.00B22,2013-03-18 02:37:00,
2013-03-17 22:42:00,59.6,49.4,29.81,WSW,245,0.0,0.0,69,0.00,,,0.00,WeatherCatV1.00B22,2013-03-18 02:42:00,
2013-03-17 22:47:00,59.5,49.3,29.81,WSW,245,0.0,0.0,69,0.00,,,0.00,WeatherCatV1.00B22,2013-03-18 02:47:00,
2013-03-17 22:52:00,59.3,49.5,29.81,WSW,245,0.0,0.0,70,0.00,,,0.00,WeatherCatV1.00B22,2013-03-18 02:52:00,
2013-03-17 22:57:00,59.0,49.2,29.81,WSW,245,0.0,0.0,70,0.00,,,0.00,WeatherCatV1.00B22,2013-03-18 02:57:00,
2013-03-17 23:02:00,58.8,49.4,29.82,WSW,245,0.0,0.0,71,0.00,,,0.00,WeatherCatV1.00B22,2013-03-18 03:02:00,
2013-03-17 23:07:00,58.6,49.6,29.82,WSW,245,0.0,0.0,72,0.00,,,0.00,WeatherCatV1.00B22,2013-03-18 03:07:00,
2013-03-17 23:12:00,58.5,49.5,29.82,WSW,245,0.0,0.0,72,0.00,,,0.00,WeatherCatV1.00B22,2013-03-18 03:12:00,
2013-03-17 23:17:00,58.3,49.7,29.82,WSW,245,0.0,0.0,73,0.00,,,0.00,WeatherCatV1.00B22,2013-03-18 03:17:00,
2013-03-17 23:22:00,58.1,49.5,29.82,WSW,245,0.0,0.0,73,0.00,,,0.00,WeatherCatV1.00B22,2013-03-18 03:22:00,
2013-03-17 23:27:00,57.9,49.7,29.82,WSW,245,0.0,0.0,74,0.00,,,0.00,WeatherCatV1.00B22,2013-03-18 03:27:00,
2013-03-17 23:32:00,57.7,49.5,29.82,WSW,245,0.0,0.0,74,0.00,,,0.00,WeatherCatV1.00B22,2013-03-18 03:32:00,
2013-03-17 23:37:00,57.5,49.3,29.82,WSW,245,0.0,0.0,74,0.00,,,0.00,WeatherCatV1.00B22,2013-03-18 03:37:00,
2013-03-17 23:42:00,57.3,49.1,29.82,WSW,245,0.0,0.0,74,0.00,,,0.00,WeatherCatV1.00B22,2013-03-18 03:42:00,
2013-03-17 23:47:00,57.2,49.3,29.82,WSW,245,0.0,0.0,75,0.00,,,0.00,WeatherCatV1.00B22,2013-03-18 03:47:00,
2013-03-17 23:52:00,57.0,49.2,29.82,WSW,245,0.0,0.0,75,0.00,,,0.00,WeatherCatV1.00B22,2013-03-18 03:52:00,
2013-03-17 23:57:00,56.9,49.4,29.82,WSW,245,0.0,0.0,76,0.00,,,0.00,WeatherCatV1.00B22,2013-03-18 03:57:00,